Volver al catálogo

THORAD AGENA D DEB

ActivoSSO
NORAD 4613·DEBRIS·🇺🇸 United States

Lanzado Apr 8, 1970 desde Vandenberg Space Force Base

Loading…

Próximos Pases (próximas 24 horas)

TLE

ActualizadoSource: Space-Track

Época: Sep 14, 2026, 21:16 UTC

1 04613U 70025R   26257.88668099  .00001246  00000-0  51904-3 0  9999
2 04613  98.5776 290.8570 0082835 266.7226  92.4475 14.26214328873895

Sigue THORAD AGENA D DEB en tiempo real con AllMySat

Download on the App Store